Notices

What's New in latest Release from April 7th, 2021:

- Updated Glossary, including Speed of Maximum Gust, and Total Hourly Precipitation

- Updated national and regional climate services offices contacts and prices information

- Addition of station inventory lists for 1981-2010, 1971-2000, and 1961-1990 Normals.

If you haven't already, please take our survey and provide feedback about our website: https://eccc.sondage-survey.ca/f/LanguageSelection.aspx?s=442ca660-fcf1-47c0-95a9-59707d6fd709

Hourly Data Report for March 24, 2010

HALIFAX STANFIELD INT'L A
NOVA SCOTIA

44°52'48.060" N
63°30'00.050" W
145.40 m
8202250
71395
YHZ

Download Data

Hourly Data (March 2010)
Hourly Data Report for March 24, 2010
TIME
LST
Temp Definition
°C
Dew Point Definition
°C
Rel Hum Definition
%
Precip. Amount Definition
mm

Wind Dir Definition
10's deg

Wind Spd Definition
km/h
Visibility Definition
km
Stn Press Definition
kPa
Hmdx Definition


Wind Chill Definition


Weather Definition


00:00 3.7 3.3 97   9 37 4.8 98.36     Rain,Fog
01:00 4.3 3.9 97   9 35 4.8 98.17     Rain,Fog
02:00 6.0 5.7 98   11 30 6.4 98.01     Rain,Fog
03:00 6.2 5.8 97   12 22 8.0 97.89     Rain,Fog
04:00 6.1 3.8 85   13 19 4.8 97.83     Rain,Fog
05:00 5.3 5.1 99   14 17 2.4 97.74     Drizzle,Fog
06:00 4.6 4.4 99   12 17 0.8 97.66     Fog
07:00 4.4 4.2 99   13 20 0.4 97.63     Fog
08:00 4.2 4.0 99   14 19 0.8 97.47     Rain Showers,Fog
09:00 4.9 4.7 99   12 11 2.0 97.39     Fog
10:00 6.0 5.9 99   12 11 16.1 97.28     Cloudy
11:00 6.2 6.0 99   12 13 16.1 97.15     Rain Showers
12:00 5.8 5.5 98   15 15 6.4 97.07     Rain Showers,Fog
13:00 6.0 5.6 97   22 9 9.7 97.01     Rain Showers,Fog
14:00 7.2 6.7 97   28 22 12.9 96.97     Cloudy
15:00 6.2 5.4 95   27 17 16.1 97.06     Mostly Cloudy
16:00 5.5 3.7 88   26 32 19.3 97.14     Cloudy
17:00 3.9 2.7 92   28 22 16.1 97.26     Rain Showers
18:00 3.1 1.6 90   27 22 16.1 97.34     Rain Showers
19:00 2.5 0.2 85   25 20 19.3 97.41     Cloudy
20:00 2.2 -0.2 84   27 24 24.1 97.46     Cloudy
21:00 1.4 -0.6 87   28 20 19.3 97.49     Cloudy
22:00 0.6 -1.2 88   27 24 19.3 97.56     Snow Showers
23:00 0.5 -0.8 91   28 19 9.7 97.61     Snow Showers

Notes on Data Quality.

Legend

  • E = Estimated
  • M = Missing
  • NA = Not Available*
  • [empty] = Indicates an unobserved value
Date modified: